HULIANWANG DIGUI-78

导读

HULIANWANG DIGUI-78是中国于北京时间2025年8月25日发射的卫星,归属“互联网低轨”卫星星座体系。作为中国低轨互联网星座建设中的一颗重要组网卫星,它将与同星座其他卫星协同,为全球用户提供高速、稳定的卫星互联网接入服务,进一步推动中国天地一体化网络构建,助力卫星通信产业发展。

Basic Information
目录编号:
65310
目录名称:
HULIANWANG DIGUI-78
国际标识:
2025-187F
轨道中心:
EARTH
卫星名称:
HULIANWANG DIGUI-78
卫星全名:
HULIANWANG DIGUI-78
卫星状态:
在轨 (已飞行291 天)
发射日期:
2025-08-25 UTC
国别 :
中国 (CN)
星等 :
--
Orbit Information
数据来源 国际轨道数据 AOE轨道数据
星历时间 2026-06-12T13:25:03+0800
16小时前
查看轨道信息
2026-06-12T15:00:00+0800
15小时前
查看轨道信息
半长轴 7527.455km 7527.454km
偏心率 0.0000436 0.0000019
轨道倾角 50.010° 50.010°
近地点辐角 175.019° 95.941°
升交点赤经 223.591° 223.355°
平近点角 185.069° 219.885°
近地点 1148.989km 1149.302km
远地点 1149.647km 1149.332km
周期 108.326分钟 108.326分钟
每日圈数 13.293231 13.293233
Detailed Information
使用方式:
暂无
2D Orbit Map
3D Orbit Map
Orbit Altitude Analysis Chart
Orbit Inclination Analysis Chart
Orbit Comprehensive Analysis Chart
View Comprehensive Chart